[[{"header":{"parameterUnit":"m.s-1","parameterCategory":2,"la1":30.2991,"la2":30.254,"lo1":-89.0895,"lo2":-89.0444,"dy":0.0017,"dx":0.0017,"nx":28,"ny":28,"refTime":"2024-05-01T03:00:00:Z","depth":"0","parameterNumber":2,"parameterNumberName":"U-component_of_CURRENTS"},"data":[0,0,0,0,0,0,0,0,0,0,0,0,0,0,0,0,0,0,0,0,0,0,0,0,0,0,0,0,0,0,0,0,0,0,0,0,0,0,0,0,0,0,0,0,0,0,0,0,0,0,0,0,0,0,0,0,0,0,0.3191,0.3192,0,0.3245,0.3245,0.3246,0.3248,0.3247,0.3247,0.3246,0.3296,0.3298,0.33,0,0,0,0,0,0,0,0,0,0,0,0,0,0.3037,0.304,0.3191,0.3192,0.3192,0.3245,0.3246,0.3246,0.3248,0.3247,0.3247,0.3246,0.3296,0.3298,0.33,0,0,0,0,0,0,0,0,0,0,0,0,0,0.3098,0.3041,0.3191,0.32,0.3202,0.3245,0.3246,0.3246,0.3248,0.3247,0.3246,0.3246,0.3295,0.3298,0.33,0.3334,0,0,0.3309,0.331,0,0,0,0,0,0,0,0,0.3094,0.3103,0.3198,0.32,0.3202,0.324,0.321,0.3276,0.3248,0.3229,0.3246,0.3245,0.3278,0.3282,0.3293,0.3336,0.3338,0.3309,0.3311,0.3312,0.3313,0,0,0,0,0,0,0,0.309,0.3101,0.3211,0.3199,0.3201,0.3184,0.3192,0.3222,0.3257,0.3231,0.3231,0.324,0.3279,0.329,0.3294,0.3339,0.3309,0.3311,0.3313,0.3314,0.3424,0.3426,0,0,0,0,0,0,0.309,0.3098,0.3209,0.3213,0.3146,0.3188,0.3197,0.3227,0.3257,0.3261,0.324,0.324,0.3286,0.3291,0.3296,0.336,0.3312,0.3314,0.3316,0.3423,0.3425,0.3426,0,0,0,0,0,0,0.3087,0.3101,0.3207,0.3155,0.3168,0.3192,0.3226,0.3229,0.3239,0.3264,0.3267,0.3247,0.3285,0.3292,0.333,0.3361,0.3316,0.3318,0.3422,0.3424,0.3425,0.3474,0,0,0,0,0,0,0.3083,0.31,0.3112,0.3157,0.3171,0.3235,0.3227,0.3231,0.3246,0.3246,0.3271,0.3275,0.3285,0.3326,0.3333,0.3364,0.332,0.342,0.3422,0.3425,0.347,0.3477,0.3483,0,0,0,0,0,0.3078,0.3088,0.3113,0.3125,0.3191,0.3236,0.3242,0.3254,0.3247,0.3258,0.3278,0.3274,0.3345,0.3329,0.3337,0.337,0.3419,0.3422,0.3425,0.3468,0.3476,0.3482,0,0,0,0,0,0,0.2984,0.3092,0.3118,0.315,0.3196,0.3237,0.324,0.3256,0.3281,0.328,0.3294,0.3301,0.3348,0.335,0.3332,0.3407,0.338,0.3385,0.3411,0.3418,0.3424,0.3418,0.3323,0,0,0,0,0,0.2984,0.3046,0.3118,0.3139,0.3168,0.3208,0.3223,0.3246,0.3276,0.3285,0.3307,0.3331,0.3368,0.3384,0.3413,0.3455,0.3437,0.3479,0.3485,0.349,0.349,0.3493,0.3499,0.3435,0.3435,0.3435,0,0,0.2944,0.3015,0.3041,0.3128,0.3162,0.3198,0.3215,0.325,0.3273,0.3289,0.332,0.3357,0.3384,0.3434,0.3454,0.3439,0.3498,0.3493,0.3498,0.3495,0.3497,0.3503,0.3508,0.3437,0.3437,0.3437,0,0,0.2895,0.2972,0.3005,0.3063,0.314,0.3182,0.3196,0.3258,0.3281,0.3331,0.335,0.3405,0.3446,0.3483,0.3503,0.3559,0.3532,0.3567,0.3593,0.3597,0.3602,0.3606,0.3582,0.3584,0.3567,0.3567,0.3567,0,0.283,0.2901,0.3008,0.3054,0.3088,0.3175,0.3192,0.3244,0.3306,0.3332,0.3342,0.3434,0.3471,0.3531,0.3565,0.3574,0.3556,0.3564,0.3604,0.3607,0.3611,0.3585,0.3587,0.3569,0.3569,0.3569,0.3569,0,0.2817,0.2872,0.2892,0.3001,0.3053,0.3087,0.3185,0.3235,0.3283,0.3335,0.3412,0.3477,0.352,0.3562,0.359,0.3644,0.3616,0.3612,0.3582,0.362,0.3591,0.3591,0.3573,0.3572,0.3572,0.3571,0,0,0.2667,0.2845,0.2846,0.2892,0.3032,0.3065,0.314,0.3222,0.3254,0.3353,0.3385,0.3506,0.3548,0.3574,0.3622,0.3661,0.3693,0.3656,0.3655,0.3627,0.3676,0.3506,0.3489,0.3691,0.3692,0.3692,0.3642,0,0.2608,0.267,0.2784,0.2831,0.2875,0.3004,0.3057,0.3157,0.3244,0.3307,0.342,0.3474,0.3547,0.3574,0.363,0.3679,0.3697,0.3705,0.3648,0.3646,0.3486,0.3485,0.3361,0.3292,0.3642,0.3642,0.3642,0,0.2559,0.2616,0.2646,0.2775,0.2799,0.2837,0.2947,0.3013,0.3157,0.3223,0.3326,0.3406,0.3511,0.3548,0.3639,0.3636,0.3658,0.3695,0.3693,0.3515,0.3476,0.3314,0.3279,0.3235,0.3642,0.3642,0.3642,0,0.2425,0.2523,0.254,0.2586,0.2734,0.276,0.283,0.2973,0.3039,0.3165,0.3216,0.3341,0.3392,0.3466,0.3576,0.3595,0.3647,0.3663,0.3524,0.3511,0.3383,0.3356,0.3291,0.3694,0.3694,0.3694,0.3694,0,0.2353,0.2373,0.2472,0.2495,0.2513,0.2647,0.269,0.279,0.2919,0.2988,0.3149,0.3207,0.3377,0.3448,0.3533,0.3516,0.3596,0.3514,0.3484,0.3393,0.3369,0.3305,0.329,0.3692,0.3692,0.3693,0.3693,0,0.2261,0.2319,0.2355,0.2448,0.2471,0.2489,0.2621,0.2659,0.2786,0.2874,0.2912,0.3099,0.3172,0.3311,0.3416,0.3416,0.333,0.3417,0.3284,0.3237,0.3006,0.2999,0.2732,0.2652,0.3218,0.3213,0.321,0,0.2241,0.2243,0.23,0.2308,0.2354,0.24,0.2438,0.2578,0.2634,0.2805,0.2831,0.2939,0.3011,0.3082,0.3121,0.3156,0.315,0.3013,0.302,0.295,0.2924,0.2827,0.2777,0.2884,0.2877,0.2872,0.2868,0,0.2207,0.2208,0.2234,0.2232,0.2249,0.2285,0.2346,0.2371,0.2526,0.2589,0.2678,0.2743,0.2812,0.2797,0.2814,0.2835,0.2829,0.2899,0.2886,0.2681,0.2516,0.2439,0.2957,0.2823,0.2827,0.2831,0.2833,0.2835,0.2176,0.2163,0.2167,0.2162,0.2172,0.2168,0.216,0.2225,0.2274,0.2353,0.2479,0.252,0.2561,0.2566,0.2552,0.2437,0.2464,0.2388,0.2394,0.2311,0.2184,0.2559,0.2348,0.2349,0.2351,0.2352,0.2353,0,0.2127,0.2107,0.2103,0.2075,0.2037,0.2077,0.2094,0.207,0.206,0.2159,0.2213,0.2243,0.2191,0.2224,0.2133,0.2008,0.1956,0.195,0.1869,0.1857,0.2256,0.2196,0.1868,0.1868,0.1868,0.1868,0.1868,0.1868,0.2102,0.2053,0.2032,0.1943,0.192,0.1848,0.1829,0.1806,0.1847,0.1847,0.1865,0.1924,0.1993,0.1919,0.1794,0.1745,0.1648,0.1486,0.1527,0.192,0.1966,0.2009,0.1953,0.1579,0.1578,0.107,0.1066,0.1063]},{"header":{"parameterUnit":"m.s-1","parameterCategory":2,"la1":30.2991,"la2":30.254,"lo1":-89.0895,"lo2":-89.0444,"dy":0.0017,"dx":0.0017,"nx":28,"ny":28,"refTime":"2024-05-01T03:00:00:Z","depth":"0","parameterNumber":3,"parameterNumberName":"V-component_of_CURRENTS"},"data":[0,0,0,0,0,0,0,0,0,0,0,0,0,0,0,0,0,0,0,0,0,0,0,0,0,0,0,0,0,0,0,0,0,0,0,0,0,0,0,0,0,0,0,0,0,0,0,0,0,0,0,0,0,0,0,0,0,0,-0.0198,-0.0198,0,-0.0235,-0.0236,-0.0236,-0.0255,-0.0255,-0.0255,-0.0255,-0.0299,-0.03,-0.0302,0,0,0,0,0,0,0,0,0,0,0,0,0,-0.0107,-0.0109,-0.0198,-0.0198,-0.0198,-0.0235,-0.0236,-0.0236,-0.0255,-0.0255,-0.0255,-0.0255,-0.0299,-0.03,-0.0302,0,0,0,0,0,0,0,0,0,0,0,0,0,-0.0146,-0.0109,-0.0197,-0.0212,-0.0213,-0.0235,-0.0236,-0.0237,-0.0255,-0.0255,-0.0255,-0.0255,-0.0298,-0.03,-0.0302,-0.0314,0,0,-0.0307,-0.0308,0,0,0,0,0,0,0,0,-0.0144,-0.0149,-0.0209,-0.0211,-0.0213,-0.024,-0.022,-0.0263,-0.0255,-0.024,-0.0255,-0.0255,-0.028,-0.0283,-0.0291,-0.0316,-0.0318,-0.0308,-0.0309,-0.0309,-0.031,0,0,0,0,0,0,0,-0.0141,-0.0148,-0.0213,-0.021,-0.0212,-0.0205,-0.021,-0.0228,-0.026,-0.0241,-0.0242,-0.0246,-0.0281,-0.0289,-0.0292,-0.0319,-0.0307,-0.0309,-0.031,-0.0311,-0.0382,-0.0382,0,0,0,0,0,0,-0.0138,-0.0146,-0.0212,-0.0214,-0.0177,-0.0206,-0.0213,-0.0232,-0.026,-0.0264,-0.0246,-0.0247,-0.0286,-0.029,-0.0294,-0.0332,-0.0309,-0.0311,-0.0312,-0.0381,-0.0382,-0.0383,0,0,0,0,0,0,-0.0136,-0.0144,-0.021,-0.0179,-0.0187,-0.0208,-0.0229,-0.0232,-0.0238,-0.0263,-0.0268,-0.0247,-0.0286,-0.0291,-0.0312,-0.0333,-0.0312,-0.0314,-0.038,-0.0381,-0.0382,-0.0394,0,0,0,0,0,0,-0.0134,-0.0144,-0.0143,-0.018,-0.0189,-0.0214,-0.0229,-0.0233,-0.024,-0.0242,-0.0266,-0.027,-0.0286,-0.0309,-0.0314,-0.0335,-0.0315,-0.0379,-0.0381,-0.0382,-0.0393,-0.0396,-0.0398,0,0,0,0,0,-0.0131,-0.0125,-0.0144,-0.0151,-0.0193,-0.0214,-0.0218,-0.0232,-0.024,-0.0238,-0.0263,-0.0269,-0.0322,-0.0311,-0.0316,-0.0339,-0.0378,-0.038,-0.0382,-0.0392,-0.0395,-0.0398,0,0,0,0,0,0,-0.0067,-0.0128,-0.0148,-0.0158,-0.0183,-0.0217,-0.0208,-0.0229,-0.0247,-0.0248,-0.0275,-0.0281,-0.0308,-0.0319,-0.0307,-0.0364,-0.0353,-0.0356,-0.0359,-0.0362,-0.0365,-0.0323,-0.0317,0,0,0,0,0,-0.0059,-0.0079,-0.013,-0.0131,-0.0146,-0.0179,-0.0186,-0.0205,-0.023,-0.0237,-0.0261,-0.0288,-0.0321,-0.0336,-0.0357,-0.0385,-0.0363,-0.0404,-0.0407,-0.0409,-0.0379,-0.0389,-0.0389,-0.0389,-0.0389,-0.0389,0,0,-0.0029,-0.0066,-0.0073,-0.012,-0.0139,-0.015,-0.0183,-0.0193,-0.0206,-0.024,-0.0255,-0.0292,-0.0328,-0.0363,-0.0377,-0.0375,-0.0395,-0.0411,-0.0413,-0.0381,-0.0391,-0.0391,-0.0391,-0.039,-0.039,-0.0389,0,0,0.0024,-0.0019,-0.0018,-0.0046,-0.0084,-0.0115,-0.0119,-0.0163,-0.0185,-0.0212,-0.0249,-0.0294,-0.033,-0.0372,-0.0396,-0.0423,-0.0405,-0.0438,-0.0423,-0.0435,-0.0434,-0.0433,-0.0389,-0.0384,-0.0445,-0.0445,-0.0445,0,0.0069,0.0048,-0.0013,-0.002,-0.0031,-0.0099,-0.0092,-0.0131,-0.0176,-0.0189,-0.0211,-0.0284,-0.0333,-0.038,-0.0405,-0.0429,-0.0406,-0.0411,-0.0436,-0.0435,-0.0434,-0.0389,-0.0383,-0.0446,-0.0446,-0.0446,-0.0446,0,0.0113,0.0099,0.0101,0.0057,0.0037,0.0031,-0.0038,-0.0063,-0.0105,-0.0143,-0.0192,-0.0267,-0.03,-0.0353,-0.0393,-0.0425,-0.04,-0.0435,-0.0423,-0.0435,-0.0386,-0.038,-0.0447,-0.0447,-0.0447,-0.0446,0,0,0.02,0.0144,0.0146,0.0139,0.0073,0.0063,0.0033,-0.0009,-0.0013,-0.0092,-0.0092,-0.0212,-0.0249,-0.0278,-0.0349,-0.039,-0.0393,-0.0411,-0.0411,-0.0354,-0.0365,-0.031,-0.0298,-0.0433,-0.0432,-0.0432,-0.0327,0,0.0257,0.0266,0.0218,0.0229,0.0223,0.0152,0.0138,0.0086,0.0035,0.0014,-0.0093,-0.0119,-0.0223,-0.024,-0.0303,-0.0366,-0.0379,-0.0414,-0.037,-0.0367,-0.031,-0.0291,-0.0256,-0.0157,-0.0321,-0.032,-0.032,0,0.0305,0.0302,0.0328,0.0303,0.0298,0.0298,0.027,0.0246,0.018,0.0148,0.0088,0.0021,-0.006,-0.0139,-0.023,-0.0242,-0.0288,-0.0342,-0.034,-0.0273,-0.0302,-0.0177,-0.014,-0.0207,-0.031,-0.0311,-0.0311,0,0.0377,0.0372,0.04,0.0389,0.0354,0.0365,0.0351,0.0298,0.0295,0.0248,0.0262,0.015,0.0125,0.0024,-0.0099,-0.0155,-0.0163,-0.0251,-0.023,-0.0224,-0.0174,-0.0165,-0.0184,-0.0276,-0.0276,-0.0276,-0.0277,0,0.0429,0.0447,0.0442,0.0452,0.0496,0.0448,0.0487,0.0454,0.0439,0.0467,0.035,0.0369,0.0162,0.0117,-0.0014,-0.0073,-0.0084,-0.019,-0.0194,-0.0176,-0.0168,-0.0208,-0.0261,-0.0272,-0.0273,-0.0274,-0.0275,0,0.0479,0.0476,0.0505,0.0512,0.0525,0.0555,0.0581,0.0605,0.059,0.0635,0.0637,0.0552,0.0498,0.0333,0.0197,0.0074,-0.0029,-0.0023,0.0043,0.0044,-0.0035,-0.0089,-0.0061,-0.0081,0.0011,0.0013,0.0014,0,0.0498,0.0522,0.0562,0.0597,0.0605,0.065,0.0685,0.0679,0.0718,0.0758,0.08,0.077,0.0756,0.0605,0.0391,0.0239,0.0108,0.0173,0.0045,0.0004,-0.006,-0.0113,-0.0138,0.0116,0.0118,0.012,0.0122,0,0.0538,0.0559,0.0589,0.0666,0.072,0.0777,0.0838,0.0896,0.0916,0.0977,0.1059,0.1064,0.093,0.0784,0.0578,0.0438,0.0145,0.0209,0.0129,0.0011,-0.0009,-0.0043,0.0038,0.0139,0.0137,0.0136,0.0135,0.0134,0.0575,0.061,0.0666,0.0736,0.0803,0.0897,0.0961,0.1044,0.1147,0.1247,0.1257,0.1306,0.11,0.0812,0.0635,0.0346,0.0292,0.0218,0.0161,0.0116,0.0078,0.0237,0.0342,0.0342,0.0341,0.0341,0.034,0,0.0616,0.0662,0.073,0.0819,0.0898,0.0927,0.1054,0.1129,0.1271,0.1386,0.1464,0.1439,0.12,0.0909,0.0526,0.0322,0.0197,0.0206,0.0109,0.0083,0.0202,0.0184,0.0306,0.0306,0.0306,0.0306,0.0306,0.0306,0.0643,0.0714,0.0747,0.0883,0.0949,0.1066,0.1144,0.1268,0.1379,0.1542,0.1611,0.1635,0.1457,0.078,0.0344,0.0231,0.007,0.0064,-0.0019,0.0018,0.0012,0.0007,-0.0023,0.0054,0.0053,-0.0121,-0.0122,-0.0124]}],[{"header":{"parameterUnit":"m.s-1","parameterCategory":2,"la1":30.2991,"la2":30.254,"lo1":-89.0895,"lo2":-89.0444,"dy":0.0017,"dx":0.0017,"nx":28,"ny":28,"refTime":"2024-05-01T03:00:00:Z","depth":"2","parameterNumber":2,"parameterNumberName":"U-component_of_CURRENTS"},"data":[0,0,0,0,0,0,0,0,0,0,0,0,0,0,0,0,0,0,0,0,0,0,0,0,0,0,0,0,0,0,0,0,0,0,0,0,0,0,0,0,0,0,0,0,0,0,0,0,0,0,0,0,0,0,0,0,0,0,0.2194,0.2194,0,0.2212,0.2212,0.2212,0.2153,0.2151,0.2149,0.2148,0.215,0.2151,0.2153,0,0,0,0,0,0,0,0,0,0,0,0,0,0.2175,0.2175,0.2194,0.2194,0.2194,0.2212,0.2212,0.2212,0.2153,0.2151,0.2149,0.2147,0.2149,0.2151,0.2153,0,0,0,0,0,0,0,0,0,0,0,0,0,0.2186,0.2175,0.2194,0.2168,0.2166,0.2212,0.2212,0.2212,0.2153,0.2151,0.2148,0.2146,0.2149,0.2151,0.2153,0.2219,0,0,0.2161,0.2162,0,0,0,0,0,0,0,0,0.2185,0.2186,0.2171,0.217,0.2168,0.2178,0.2206,0.2214,0.2154,0.2157,0.2148,0.2145,0.2161,0.2162,0.2169,0.2219,0.2219,0.2161,0.2163,0.2164,0.2164,0,0,0,0,0,0,0,0.2185,0.2186,0.22,0.2172,0.217,0.2179,0.2177,0.2208,0.2171,0.2156,0.2153,0.2157,0.2159,0.2167,0.2169,0.2219,0.2161,0.2163,0.2165,0.2166,0.2249,0.225,0,0,0,0,0,0,0.2184,0.2185,0.2199,0.22,0.2172,0.2181,0.2179,0.2177,0.2171,0.2169,0.2159,0.2155,0.2164,0.2166,0.2169,0.2207,0.2164,0.2166,0.2167,0.2248,0.2249,0.225,0,0,0,0,0,0,0.2184,0.2185,0.2198,0.2194,0.2197,0.2183,0.2182,0.2178,0.2199,0.2174,0.217,0.2185,0.2162,0.2165,0.2187,0.2207,0.2167,0.2169,0.2247,0.2248,0.2249,0.2308,0,0,0,0,0,0,0.2183,0.2185,0.2202,0.2194,0.2197,0.2229,0.2185,0.2181,0.2206,0.22,0.2196,0.2192,0.2161,0.2184,0.219,0.221,0.2171,0.2246,0.2248,0.2249,0.2305,0.2311,0.2316,0,0,0,0,0,0.2182,0.2201,0.2202,0.2205,0.2214,0.2231,0.2234,0.2215,0.221,0.2225,0.221,0.2192,0.2196,0.2188,0.2194,0.2215,0.2246,0.2247,0.2249,0.2303,0.231,0.2316,0,0,0,0,0,0,0.2189,0.2198,0.2197,0.2215,0.2228,0.2221,0.2229,0.2242,0.2248,0.2231,0.2218,0.2215,0.2241,0.2227,0.2218,0.224,0.2214,0.2217,0.2252,0.2259,0.2264,0.2268,0.2173,0,0,0,0,0,0.2206,0.2213,0.2232,0.2237,0.2249,0.2255,0.2268,0.2256,0.2255,0.2256,0.2253,0.2244,0.2257,0.2255,0.2258,0.2288,0.2283,0.2299,0.2305,0.2309,0.2316,0.2353,0.2363,0.2255,0.2255,0.2255,0,0,0.2199,0.221,0.2209,0.224,0.2239,0.2257,0.2254,0.2262,0.2273,0.2258,0.2268,0.2278,0.2273,0.2286,0.2295,0.2273,0.233,0.2312,0.2316,0.2319,0.2356,0.2367,0.2376,0.2257,0.2256,0.2256,0,0,0.2182,0.2208,0.2211,0.2233,0.2251,0.2263,0.228,0.2291,0.2293,0.2316,0.2306,0.2327,0.2338,0.2334,0.2336,0.2384,0.237,0.2385,0.2408,0.2445,0.2454,0.2463,0.2441,0.2448,0.2374,0.2375,0.2375,0,0.2179,0.2185,0.2216,0.223,0.2241,0.2273,0.2281,0.2305,0.2319,0.2333,0.2312,0.2359,0.2356,0.2397,0.2397,0.2398,0.2401,0.2385,0.2454,0.2462,0.247,0.2446,0.2452,0.2378,0.2377,0.2377,0.2377,0,0.2165,0.218,0.2181,0.2209,0.2236,0.2242,0.228,0.2306,0.2321,0.2346,0.2393,0.2398,0.2421,0.2429,0.2426,0.2487,0.2464,0.247,0.2441,0.2485,0.2456,0.2461,0.2382,0.2381,0.238,0.2379,0,0,0.2123,0.2164,0.2164,0.2174,0.2222,0.2238,0.2269,0.2317,0.2347,0.2377,0.2415,0.2453,0.2481,0.2487,0.2502,0.253,0.2576,0.2525,0.2525,0.2507,0.2626,0.2547,0.2545,0.2608,0.261,0.2612,0.2574,0,0.2098,0.2114,0.2145,0.216,0.2174,0.2219,0.2253,0.2303,0.2341,0.2391,0.2438,0.2483,0.2499,0.2515,0.2557,0.2576,0.2598,0.2583,0.2582,0.258,0.2511,0.2552,0.235,0.2296,0.2579,0.258,0.258,0,0.2076,0.2092,0.21,0.2141,0.2152,0.2176,0.2234,0.227,0.2361,0.2389,0.2458,0.2506,0.2569,0.2571,0.2634,0.2629,0.2638,0.2644,0.2643,0.2557,0.2514,0.2303,0.2295,0.2589,0.2588,0.2587,0.2587,0,0.2032,0.2062,0.2065,0.2079,0.2138,0.2151,0.219,0.227,0.2307,0.2402,0.2433,0.2527,0.256,0.2612,0.2642,0.2645,0.2693,0.2687,0.2621,0.2613,0.2431,0.2405,0.2741,0.2741,0.2741,0.2741,0.2741,0,0.2,0.2005,0.2048,0.2053,0.2072,0.2124,0.2161,0.2214,0.2294,0.2347,0.2442,0.2488,0.2582,0.2627,0.2649,0.2644,0.2699,0.263,0.2613,0.2441,0.2417,0.2669,0.2661,0.274,0.274,0.274,0.2741,0,0.1954,0.1978,0.1989,0.2037,0.2051,0.207,0.2136,0.2169,0.225,0.2315,0.2348,0.2464,0.2518,0.2583,0.2643,0.2628,0.2639,0.2627,0.2391,0.2349,0.2521,0.2517,0.2528,0.2525,0.2523,0.2521,0.2519,0,0.1935,0.1934,0.1969,0.1975,0.1994,0.203,0.2055,0.2137,0.2173,0.2293,0.2317,0.2407,0.2454,0.2496,0.2495,0.2494,0.2588,0.2294,0.2272,0.2524,0.2507,0.2506,0.2505,0.2032,0.2026,0.2022,0.2018,0,0.1902,0.1911,0.1922,0.193,0.1945,0.1965,0.2007,0.2029,0.2128,0.2171,0.2236,0.2284,0.2338,0.2254,0.2262,0.2244,0.2277,0.2202,0.2542,0.2129,0.2057,0.204,0.2055,0.1978,0.1982,0.1985,0.1987,0.1989,0.1878,0.1871,0.1879,0.1876,0.1891,0.1892,0.1878,0.1925,0.1954,0.1997,0.2098,0.2085,0.2102,0.2015,0.1948,0.1895,0.2063,0.1963,0.1976,0.1995,0.1956,0.1887,0.1764,0.1766,0.1769,0.1771,0.1773,0,0.1834,0.1826,0.1825,0.1807,0.1783,0.1819,0.1831,0.1798,0.1783,0.1842,0.1865,0.1713,0.1641,0.1665,0.1521,0.1507,0.1496,0.1441,0.141,0.1451,0.1487,0.1423,0.1088,0.1086,0.1084,0.1082,0,0,0.1813,0.1779,0.1764,0.1695,0.1684,0.1623,0.1608,0.1577,0.1584,0.1542,0.1506,0.1605,0.1634,0.1356,0.1303,0.1171,0.1308,0.1123,0.1674,0.168,0.1714,0.179,0.1738,0,0,0,0,0]},{"header":{"parameterUnit":"m.s-1","parameterCategory":2,"la1":30.2991,"la2":30.254,"lo1":-89.0895,"lo2":-89.0444,"dy":0.0017,"dx":0.0017,"nx":28,"ny":28,"refTime":"2024-05-01T03:00:00:Z","depth":"2","parameterNumber":3,"parameterNumberName":"V-component_of_CURRENTS"},"data":[0,0,0,0,0,0,0,0,0,0,0,0,0,0,0,0,0,0,0,0,0,0,0,0,0,0,0,0,0,0,0,0,0,0,0,0,0,0,0,0,0,0,0,0,0,0,0,0,0,0,0,0,0,0,0,0,0,0,0.0159,0.0159,0,0.014,0.014,0.0139,0.0144,0.0144,0.0145,0.0145,0.0134,0.0133,0.0133,0,0,0,0,0,0,0,0,0,0,0,0,0,0.0153,0.0153,0.0159,0.0159,0.0159,0.014,0.014,0.0139,0.0144,0.0144,0.0145,0.0145,0.0134,0.0134,0.0133,0,0,0,0,0,0,0,0,0,0,0,0,0,0.0147,0.0153,0.0159,0.0158,0.0158,0.014,0.014,0.0139,0.0144,0.0144,0.0145,0.0145,0.0134,0.0134,0.0133,0.0118,0,0,0.013,0.013,0,0,0,0,0,0,0,0,0.0148,0.0148,0.0159,0.0158,0.0158,0.0144,0.0133,0.0132,0.0144,0.015,0.0145,0.0146,0.0138,0.0136,0.0132,0.0117,0.0117,0.013,0.0129,0.0129,0.0129,0,0,0,0,0,0,0,0.0148,0.0148,0.0152,0.0158,0.0158,0.0142,0.0143,0.0133,0.0142,0.0149,0.0149,0.0146,0.0138,0.0133,0.0132,0.0117,0.013,0.0129,0.0129,0.0128,0.0125,0.0125,0,0,0,0,0,0,0.0151,0.0149,0.0153,0.0151,0.0153,0.0142,0.0142,0.0149,0.0142,0.0141,0.0146,0.0146,0.0135,0.0133,0.0132,0.0146,0.0129,0.0128,0.0128,0.0124,0.0125,0.0125,0,0,0,0,0,0,0.0151,0.0152,0.0153,0.0148,0.0148,0.0142,0.0149,0.0148,0.0141,0.0139,0.0139,0.0139,0.0135,0.0133,0.0135,0.0144,0.0128,0.0127,0.0124,0.0125,0.0125,0.0153,0,0,0,0,0,0,0.0151,0.0153,0.0155,0.0149,0.0148,0.0152,0.0148,0.0147,0.0138,0.0139,0.0133,0.0133,0.0135,0.0137,0.0135,0.0143,0.0126,0.0123,0.0124,0.0125,0.0152,0.0155,0.0157,0,0,0,0,0,0.0151,0.0163,0.0156,0.0156,0.0153,0.0152,0.015,0.0147,0.0137,0.0141,0.014,0.0133,0.014,0.0136,0.0134,0.0142,0.0123,0.0124,0.0125,0.015,0.0154,0.0157,0,0,0,0,0,0,0.0168,0.0164,0.0156,0.0167,0.016,0.0153,0.0158,0.0142,0.0141,0.0146,0.0135,0.0135,0.014,0.0135,0.0131,0.0144,0.0131,0.0132,0.0151,0.0155,0.0157,0.0175,0.0126,0,0,0,0,0,0.0169,0.0178,0.0166,0.0177,0.0174,0.0159,0.0155,0.0152,0.015,0.0149,0.0144,0.0143,0.0141,0.0144,0.0143,0.0146,0.0136,0.015,0.0153,0.0156,0.0168,0.0148,0.015,0.0129,0.0129,0.0129,0,0,0.018,0.0179,0.0184,0.018,0.0177,0.0183,0.016,0.0163,0.0171,0.0148,0.0162,0.0149,0.0143,0.0154,0.0156,0.0152,0.0158,0.0157,0.0159,0.017,0.0149,0.0151,0.0153,0.0129,0.0129,0.0129,0,0,0.021,0.0204,0.0219,0.0215,0.0209,0.0202,0.0199,0.019,0.0191,0.0196,0.0182,0.018,0.0176,0.0179,0.0177,0.0192,0.017,0.0184,0.0216,0.0196,0.0197,0.0199,0.0195,0.0196,0.0189,0.0189,0.0189,0,0.0222,0.0238,0.0223,0.0235,0.0238,0.021,0.0226,0.0221,0.0215,0.0219,0.0212,0.0203,0.0195,0.0202,0.0212,0.02,0.0184,0.0203,0.0199,0.02,0.0201,0.0197,0.0198,0.0191,0.0191,0.019,0.019,0,0.0259,0.0269,0.0281,0.0287,0.0287,0.0299,0.0288,0.0291,0.0282,0.0273,0.0276,0.0262,0.026,0.025,0.0238,0.0237,0.0223,0.02,0.019,0.0205,0.02,0.02,0.0193,0.0192,0.0192,0.0191,0,0,0.0298,0.0305,0.031,0.0321,0.0317,0.0326,0.0341,0.0345,0.0358,0.0343,0.0359,0.0344,0.0322,0.0319,0.0292,0.0276,0.0268,0.0242,0.024,0.024,0.0229,0.0215,0.0213,0.0232,0.0232,0.0232,0.0225,0,0.0333,0.0366,0.036,0.0394,0.0409,0.0395,0.0413,0.0413,0.041,0.0419,0.0391,0.0394,0.0351,0.035,0.0325,0.0284,0.0267,0.0272,0.0215,0.0214,0.02,0.0213,0.0224,0.0218,0.0225,0.0225,0.0225,0,0.0371,0.0389,0.0428,0.045,0.0457,0.0473,0.0499,0.0511,0.0508,0.0507,0.0492,0.0463,0.0445,0.0402,0.0343,0.0343,0.0293,0.0255,0.0253,0.0233,0.02,0.0203,0.0217,0.0224,0.0224,0.0224,0.0224,0,0.0409,0.0438,0.0473,0.048,0.0499,0.0521,0.0532,0.0539,0.0564,0.056,0.0575,0.0531,0.0525,0.0452,0.0371,0.0355,0.0301,0.0271,0.0214,0.0212,0.021,0.0209,0.0227,0.0227,0.0227,0.0227,0.0227,0,0.0448,0.0476,0.0495,0.0515,0.0564,0.0562,0.0614,0.0618,0.0637,0.0675,0.0621,0.064,0.0532,0.0484,0.0398,0.0313,0.0321,0.023,0.021,0.0221,0.022,0.0214,0.0213,0.0227,0.0227,0.0227,0.0227,0,0.0481,0.0493,0.0535,0.0567,0.0584,0.0619,0.0669,0.0705,0.0713,0.0763,0.0766,0.0726,0.0666,0.0555,0.0448,0.0361,0.0274,0.0235,0.0264,0.0247,0.0194,0.0195,0.0185,0.0185,0.0184,0.0184,0.0183,0,0.0499,0.0525,0.0577,0.0609,0.0627,0.0679,0.0721,0.0744,0.0789,0.0822,0.0854,0.0806,0.0788,0.0627,0.0464,0.0321,0.0283,0.0223,0.0194,0.0209,0.019,0.0191,0.0192,0.0207,0.0206,0.0206,0.0206,0,0.053,0.0551,0.0587,0.0654,0.0705,0.0768,0.0829,0.0877,0.0916,0.0957,0.0998,0.0985,0.0835,0.0689,0.0475,0.0368,0.0247,0.0217,0.0226,0.0212,0.0227,0.0209,0.021,0.0206,0.0206,0.0206,0.0206,0.0206,0.0555,0.0585,0.0635,0.0701,0.0764,0.0847,0.0903,0.0973,0.1052,0.1112,0.1101,0.1078,0.0907,0.0639,0.0454,0.0248,0.0262,0.0179,0.018,0.0181,0.0181,0.0194,0.0168,0.0168,0.0168,0.0167,0.0167,0,0.0578,0.0617,0.0676,0.0756,0.0826,0.086,0.0969,0.1026,0.1121,0.1173,0.1203,0.1033,0.087,0.0664,0.0374,0.0205,0.0183,0.0133,0.0149,0.0152,0.0154,0.0152,0.0131,0.013,0.013,0.0129,0,0,0.059,0.0645,0.0676,0.079,0.0851,0.095,0.1014,0.1102,0.1163,0.1209,0.1195,0.1168,0.0932,0.0711,0.0479,0.0309,0.0264,0.0264,0.0314,0.0364,0.0368,0.0202,0.0205,0,0,0,0,0]}],[{"header":{"parameterUnit":"m.s-1","parameterCategory":2,"la1":30.2991,"la2":30.254,"lo1":-89.0895,"lo2":-89.0444,"dy":0.0017,"dx":0.0017,"nx":28,"ny":28,"refTime":"2024-05-01T03:00:00:Z","depth":"4","parameterNumber":2,"parameterNumberName":"U-component_of_CURRENTS"},"data":[0,0,0,0,0,0,0,0,0,0,0,0,0,0,0,0,0,0,0,0,0,0,0,0,0,0,0,0,0,0,0,0,0,0,0,0,0,0,0,0,0,0,0,0,0,0,0,0,0,0,0,0,0,0,0,0,0,0,0.1335,0.1336,0,0.1356,0.1356,0.1356,0.1371,0.1372,0.1372,0.1372,0.14,0.1401,0.1401,0,0,0,0,0,0,0,0,0,0,0,0,0,0.1333,0.1333,0.1335,0.1336,0.1336,0.1356,0.1356,0.1356,0.1371,0.1372,0.1372,0.1373,0.14,0.1401,0.1401,0,0,0,0,0,0,0,0,0,0,0,0,0,0.1338,0.1332,0.1335,0.1349,0.1351,0.1356,0.1356,0.1355,0.1371,0.1372,0.1372,0.1373,0.14,0.1401,0.1401,0.1389,0,0,0.1402,0.1403,0,0,0,0,0,0,0,0,0.1338,0.1338,0.1347,0.1348,0.135,0.1365,0.1365,0.1368,0.1371,0.1359,0.1372,0.1373,0.1391,0.1392,0.1389,0.1391,0.1392,0.1403,0.1403,0.1403,0.1403,0,0,0,0,0,0,0,0.1337,0.1337,0.134,0.1347,0.135,0.1363,0.1364,0.1366,0.1368,0.136,0.1362,0.137,0.1392,0.1389,0.139,0.1392,0.1402,0.1403,0.1403,0.1403,0.1469,0.147,0,0,0,0,0,0,0.134,0.1336,0.1339,0.1341,0.135,0.1362,0.1363,0.1356,0.1368,0.1372,0.137,0.1371,0.1388,0.1389,0.1391,0.1443,0.1403,0.1403,0.1404,0.1467,0.1469,0.1471,0,0,0,0,0,0,0.134,0.1339,0.1338,0.1343,0.1344,0.1362,0.1354,0.1356,0.1383,0.1376,0.1379,0.1397,0.1388,0.1391,0.1416,0.1441,0.1404,0.1404,0.1466,0.1468,0.147,0.1504,0,0,0,0,0,0,0.1339,0.1339,0.1344,0.1343,0.1344,0.1359,0.1354,0.1356,0.1386,0.1389,0.14,0.1401,0.1389,0.1416,0.1416,0.1441,0.1404,0.1464,0.1467,0.1469,0.1501,0.1507,0.1512,0,0,0,0,0,0.1339,0.1337,0.1343,0.1345,0.1347,0.136,0.1362,0.1375,0.1388,0.1401,0.141,0.1403,0.1434,0.1417,0.1418,0.1443,0.1462,0.1466,0.1469,0.1499,0.1506,0.1512,0,0,0,0,0,0,0.1344,0.1339,0.1346,0.1345,0.1363,0.1365,0.1383,0.1393,0.141,0.1422,0.1414,0.1416,0.1453,0.1445,0.1426,0.1473,0.145,0.1454,0.1472,0.1479,0.1485,0.1485,0.1405,0,0,0,0,0,0.1347,0.1346,0.1351,0.1359,0.1368,0.1383,0.1396,0.1407,0.1419,0.1428,0.1439,0.1452,0.1462,0.1469,0.148,0.1497,0.1503,0.1519,0.1524,0.1529,0.1532,0.1566,0.1575,0.1482,0.1482,0.1482,0,0,0.1358,0.1354,0.1358,0.1362,0.1378,0.1391,0.1392,0.1421,0.1437,0.1428,0.1465,0.1477,0.1474,0.1498,0.1513,0.1496,0.156,0.1533,0.1537,0.1537,0.1571,0.158,0.1588,0.1484,0.1484,0.1483,0,0,0.1373,0.1375,0.1378,0.139,0.1415,0.142,0.1436,0.1457,0.1474,0.1504,0.1506,0.1535,0.1551,0.1552,0.1551,0.1596,0.1595,0.1608,0.1628,0.1662,0.167,0.1677,0.1698,0.1707,0.1604,0.1604,0.1604,0,0.139,0.1385,0.1388,0.1396,0.1411,0.1436,0.1453,0.1468,0.1499,0.1518,0.1525,0.157,0.1573,0.1592,0.1607,0.1609,0.1625,0.1598,0.1669,0.1675,0.1682,0.1703,0.1711,0.1606,0.1606,0.1605,0.1605,0,0.1397,0.1407,0.1416,0.1427,0.1444,0.1467,0.1486,0.152,0.1549,0.1563,0.1612,0.1619,0.1645,0.1653,0.164,0.1688,0.1685,0.1676,0.1647,0.1693,0.1712,0.1721,0.1609,0.1608,0.1607,0.1607,0,0,0.139,0.1415,0.1421,0.1432,0.1462,0.1473,0.1513,0.1545,0.1576,0.1615,0.1653,0.1677,0.1699,0.1701,0.1702,0.1723,0.1782,0.1721,0.1721,0.1735,0.1857,0.172,0.1716,0.1789,0.1791,0.1793,0.1853,0,0.1399,0.1416,0.1427,0.1457,0.1467,0.1503,0.1531,0.1569,0.1607,0.1651,0.1676,0.1714,0.171,0.1733,0.1757,0.1779,0.1806,0.1766,0.1817,0.1818,0.1685,0.1722,0.1798,0.1859,0.1861,0.1862,0.1863,0,0.1387,0.1401,0.143,0.1464,0.1474,0.1501,0.1557,0.1587,0.1649,0.1683,0.1733,0.1756,0.1802,0.1792,0.1857,0.1835,0.1855,0.1865,0.1867,0.1731,0.1696,0.1805,0.1879,0.1877,0.1876,0.1875,0.1874,0,0.1356,0.1394,0.1418,0.1431,0.1478,0.1511,0.1546,0.1607,0.1639,0.1716,0.1754,0.1808,0.1848,0.1884,0.1913,0.1899,0.1975,0.1956,0.1851,0.1842,0.1932,0.1924,0.2008,0.2008,0.2007,0.2007,0.2007,0,0.1327,0.1348,0.1413,0.1423,0.146,0.1502,0.1554,0.16,0.167,0.1706,0.1774,0.1806,0.1878,0.1923,0.1938,0.1916,0.2004,0.1859,0.1848,0.1946,0.1939,0.1938,0.193,0.2009,0.2009,0.2009,0.2008,0,0.1277,0.1321,0.1351,0.1419,0.1444,0.1474,0.1554,0.1584,0.1666,0.1719,0.1749,0.1832,0.1882,0.1932,0.1992,0.1935,0.1936,0.1911,0.2018,0.2012,0.1776,0.1768,0.179,0.1786,0.1782,0.1779,0.1777,0,0.1248,0.1262,0.1343,0.1368,0.1404,0.146,0.1494,0.1576,0.1607,0.1714,0.1726,0.1811,0.1853,0.1825,0.189,0.1901,0.188,0.1866,0.1807,0.1765,0.1754,0.1753,0.175,0.1771,0.177,0.1769,0.1768,0,0.1195,0.1242,0.1272,0.1324,0.1368,0.1402,0.146,0.147,0.1559,0.1647,0.1657,0.1669,0.1717,0.1742,0.1765,0.1772,0.1861,0.1827,0.1834,0.1778,0.1742,0.1734,0.1736,0.1755,0.1757,0.1758,0.1759,0,0.1167,0.1178,0.1231,0.1261,0.1315,0.1324,0.1363,0.1387,0.1422,0.153,0.1534,0.1618,0.1702,0.1677,0.1701,0.1689,0.1656,0.1591,0.161,0.1625,0.1539,0.1467,0.1388,0,0,0,0,0,0.1127,0.1128,0.1159,0.1181,0.123,0.1259,0.1326,0.1366,0.1451,0.1415,0.1465,0.1496,0.1505,0.1552,0.1506,0.1635,0.1674,0.1573,0.1612,0.1684,0.1699,0.1611,0,0,0,0,0,0,0.1101,0.1131,0.113,0.1107,0.1108,0.1145,0.1186,0.1245,0.1226,0.132,0.1335,0.1399,0.144,0.1517,0.1476,0.1489,0.148,0.1627,0.1622,0.1676,0.1689,0.1701,0.1616,0,0,0,0,0]},{"header":{"parameterUnit":"m.s-1","parameterCategory":2,"la1":30.2991,"la2":30.254,"lo1":-89.0895,"lo2":-89.0444,"dy":0.0017,"dx":0.0017,"nx":28,"ny":28,"refTime":"2024-05-01T03:00:00:Z","depth":"4","parameterNumber":3,"parameterNumberName":"V-component_of_CURRENTS"},"data":[0,0,0,0,0,0,0,0,0,0,0,0,0,0,0,0,0,0,0,0,0,0,0,0,0,0,0,0,0,0,0,0,0,0,0,0,0,0,0,0,0,0,0,0,0,0,0,0,0,0,0,0,0,0,0,0,0,0,0.0237,0.0237,0,0.0239,0.0239,0.0239,0.0244,0.0244,0.0244,0.0244,0.0262,0.0262,0.0263,0,0,0,0,0,0,0,0,0,0,0,0,0,0.0209,0.021,0.0237,0.0237,0.0237,0.0239,0.0239,0.024,0.0244,0.0244,0.0244,0.0244,0.0262,0.0262,0.0263,0,0,0,0,0,0,0,0,0,0,0,0,0,0.0219,0.021,0.0237,0.0239,0.0239,0.0239,0.0239,0.024,0.0244,0.0244,0.0244,0.0244,0.0261,0.0262,0.0263,0.0268,0,0,0.0265,0.0266,0,0,0,0,0,0,0,0,0.0218,0.022,0.0239,0.0239,0.0239,0.024,0.0236,0.0249,0.0244,0.0243,0.0244,0.0244,0.0255,0.0257,0.0259,0.0269,0.027,0.0265,0.0266,0.0266,0.0266,0,0,0,0,0,0,0,0.0217,0.022,0.0239,0.0239,0.0239,0.0229,0.0231,0.0238,0.0251,0.0243,0.0243,0.0242,0.0256,0.0258,0.0259,0.027,0.0265,0.0266,0.0266,0.0267,0.0298,0.0298,0,0,0,0,0,0,0.0216,0.0219,0.0239,0.0239,0.0227,0.023,0.0232,0.0241,0.025,0.0251,0.0242,0.0242,0.0257,0.0258,0.026,0.0292,0.0266,0.0267,0.0267,0.0298,0.0298,0.0298,0,0,0,0,0,0,0.0216,0.0219,0.0239,0.0227,0.0229,0.0231,0.024,0.0241,0.0246,0.0249,0.025,0.0246,0.0257,0.0259,0.0274,0.0292,0.0267,0.0268,0.0297,0.0298,0.0298,0.034,0,0,0,0,0,0,0.0215,0.0219,0.0228,0.0228,0.023,0.0246,0.024,0.0241,0.0244,0.0244,0.0253,0.0254,0.0257,0.0273,0.0274,0.0292,0.0268,0.0297,0.0297,0.0298,0.0338,0.0342,0.0345,0,0,0,0,0,0.0215,0.023,0.0229,0.0232,0.0243,0.0246,0.0247,0.0247,0.0244,0.0251,0.0257,0.0254,0.0278,0.0274,0.0276,0.0294,0.0296,0.0297,0.0298,0.0336,0.0341,0.0345,0,0,0,0,0,0,0.0223,0.0231,0.0231,0.0248,0.0248,0.0246,0.0253,0.0249,0.0259,0.0261,0.0262,0.0264,0.0283,0.028,0.0275,0.0303,0.0286,0.0287,0.0314,0.0319,0.0322,0.0329,0.0269,0,0,0,0,0,0.0229,0.0244,0.0243,0.0257,0.0258,0.0255,0.0257,0.0256,0.026,0.0264,0.0269,0.0275,0.0287,0.0296,0.0301,0.032,0.0302,0.0331,0.0334,0.0337,0.0344,0.0331,0.0334,0.0301,0.0301,0.0301,0,0,0.0235,0.0242,0.0249,0.026,0.0261,0.027,0.0257,0.0262,0.0275,0.0265,0.0287,0.0287,0.0293,0.0314,0.0322,0.0316,0.0334,0.0339,0.0341,0.0346,0.0333,0.0336,0.0339,0.0302,0.0302,0.0302,0,0,0.0252,0.0261,0.0277,0.028,0.0283,0.0283,0.0285,0.0285,0.0292,0.0308,0.0305,0.0317,0.0331,0.0343,0.035,0.0375,0.035,0.0372,0.0404,0.0391,0.0394,0.0396,0.0365,0.0364,0.0378,0.0379,0.0379,0,0.0259,0.0281,0.028,0.0293,0.0302,0.0291,0.0307,0.0312,0.0318,0.0329,0.0321,0.0345,0.0348,0.0381,0.039,0.0385,0.0363,0.039,0.0397,0.0398,0.04,0.0368,0.0366,0.0381,0.038,0.038,0.038,0,0.0283,0.0302,0.0311,0.0329,0.0338,0.035,0.0354,0.0363,0.0366,0.0371,0.0396,0.0398,0.0413,0.0416,0.0414,0.0432,0.0406,0.0399,0.0387,0.0406,0.037,0.0368,0.0384,0.0383,0.0382,0.0382,0,0,0.0301,0.0324,0.033,0.0348,0.036,0.0372,0.0393,0.0414,0.0435,0.0437,0.0463,0.0481,0.0474,0.048,0.0476,0.047,0.0459,0.0442,0.0441,0.0414,0.0413,0.0382,0.0376,0.0449,0.045,0.045,0.038,0,0.0323,0.0359,0.0365,0.0403,0.0423,0.0426,0.0451,0.0467,0.0477,0.0497,0.0499,0.0519,0.0501,0.051,0.0502,0.0472,0.0456,0.0477,0.0397,0.0395,0.0367,0.0374,0.045,0.0378,0.0377,0.0377,0.0377,0,0.0349,0.0371,0.0411,0.045,0.046,0.0481,0.0522,0.0543,0.0562,0.0569,0.058,0.057,0.0574,0.0549,0.0505,0.0516,0.0469,0.0438,0.0434,0.0392,0.036,0.0358,0.0372,0.0373,0.0373,0.0373,0.0373,0,0.0369,0.0408,0.0446,0.0458,0.0494,0.0519,0.0542,0.0568,0.0596,0.0613,0.0625,0.0617,0.0615,0.0565,0.0499,0.0499,0.0433,0.0424,0.0349,0.0344,0.0375,0.0374,0.0386,0.0386,0.0386,0.0386,0.0386,0,0.0393,0.0425,0.046,0.0482,0.0535,0.0549,0.0605,0.0621,0.065,0.0684,0.0665,0.0677,0.0618,0.0571,0.0506,0.0417,0.0434,0.0353,0.033,0.0392,0.0393,0.0372,0.0372,0.0384,0.0384,0.0385,0.0385,0,0.0409,0.0431,0.0478,0.0525,0.0546,0.0584,0.0645,0.0679,0.0699,0.0738,0.0744,0.0719,0.0656,0.0581,0.0491,0.0426,0.0345,0.0306,0.0366,0.0346,0.026,0.0262,0.0217,0.0215,0.0214,0.0213,0.0212,0,0.0417,0.0442,0.0509,0.0541,0.0566,0.0624,0.0665,0.0704,0.0738,0.0763,0.0779,0.0732,0.0701,0.0548,0.0465,0.0326,0.0306,0.025,0.0269,0.0263,0.0245,0.0249,0.0253,0.021,0.0209,0.0209,0.0209,0,0.0429,0.0456,0.0494,0.056,0.0612,0.0673,0.073,0.0756,0.0798,0.0816,0.08,0.0727,0.065,0.0539,0.0425,0.033,0.0283,0.0236,0.0238,0.0255,0.0254,0.0238,0.0244,0.0204,0.0205,0.0205,0.0205,0,0.0436,0.0462,0.0512,0.0572,0.0638,0.0698,0.0733,0.0767,0.0801,0.0821,0.0812,0.0735,0.0695,0.054,0.0441,0.0338,0.0313,0.0273,0.0273,0.0277,0.0316,0.0325,0.0277,0,0,0,0,0,0.0436,0.0464,0.0517,0.0582,0.0649,0.0691,0.0765,0.0793,0.083,0.0818,0.0816,0.0743,0.0594,0.0538,0.0428,0.0412,0.0293,0.0278,0.0245,0.0178,0.0184,0.0218,0,0,0,0,0,0,0.0433,0.048,0.0509,0.058,0.0624,0.0699,0.0749,0.0777,0.0773,0.0791,0.0718,0.0694,0.0556,0.0651,0.0417,0.0389,0.0347,0.0219,0.0216,0.0175,0.018,0.0184,0.0221,0,0,0,0,0]}]]